Weather Data

Pearl Creek Farm: 8878 N Farm Road 75, Walnut Grove MO 65770

<== Previous Day (Wednesday 23 Mar 2011) | Next Day (Friday 25 Mar 2011) ==>

Summary Precipitation Data For Thursday 24 March 2011

ElementValueUnits
Precipitation0"
Notes(none)
SourcePearl Creek Farm

Summary Temperature Data For Thursday 24 March 2011

ElementValueUnits
High Temperature50 oF
Low Temperature36 oF
Average Temperature42 oF
High Humidity69 %
Low Humidity56 %
Average Humidity63 %
SourcePearl Creek Farm

Detail Temperature Data For Thursday 24 March 2011

Date / TimeTemp (F)RH (%)Dew Pt (F)Report Date / TimeSource
2011-03-24 00:00:00 50 56 34.7 2011-05-13 22:19:16 Pearl Creek Farm
2011-03-24 00:30:00 48 56 32.9 2011-05-13 22:19:16 Pearl Creek Farm
2011-03-24 01:00:00 47 56 31.9 2011-05-13 22:19:16 Pearl Creek Farm
2011-03-24 01:30:00 46 56 31.2 2011-05-13 22:19:16 Pearl Creek Farm
2011-03-24 02:00:00 45 56 30.3 2011-05-13 22:19:16 Pearl Creek Farm
2011-03-24 02:30:00 44 58 30.0 2011-05-13 22:19:16 Pearl Creek Farm
2011-03-24 03:00:00 43 61 30.3 2011-05-13 22:19:16 Pearl Creek Farm
2011-03-24 03:30:00 42 60 29.2 2011-05-13 22:19:16 Pearl Creek Farm
2011-03-24 04:00:00 41 60 28.2 2011-05-13 22:19:16 Pearl Creek Farm
2011-03-24 04:30:00 40 61 27.7 2011-05-13 22:19:16 Pearl Creek Farm
2011-03-24 05:00:00 39 62 26.9 2011-05-13 22:19:16 Pearl Creek Farm
2011-03-24 05:30:00 38 63 26.4 2011-05-13 22:19:16 Pearl Creek Farm
2011-03-24 06:00:00 38 65 27.3 2011-05-13 22:19:16 Pearl Creek Farm
2011-03-24 06:30:00 37 66 26.5 2011-05-13 22:19:16 Pearl Creek Farm
2011-03-24 07:00:00 36 67 26.0 2011-05-13 22:19:16 Pearl Creek Farm
2011-03-24 07:30:00 37 69 27.6 2011-05-13 22:19:16 Pearl Creek Farm
2011-03-24 08:00:00 37 67 26.9 2011-05-13 22:19:16 Pearl Creek Farm
2011-03-24 08:30:00 37 68 27.3 2011-05-13 22:19:16 Pearl Creek Farm
2011-03-24 09:00:00 37 68 27.3 2011-05-13 22:19:16 Pearl Creek Farm
2011-03-24 09:30:00 37 67 27.1 2011-05-13 22:19:16 Pearl Creek Farm
2011-03-24 10:00:00 37 67 26.9 2011-05-13 22:19:16 Pearl Creek Farm
2011-03-24 10:30:00 38 67 27.9 2011-05-13 22:19:16 Pearl Creek Farm
2011-03-24 11:00:00 38 66 27.7 2011-05-13 22:19:16 Pearl Creek Farm
2011-03-24 11:30:00 38 67 28.0 2011-05-13 22:19:16 Pearl Creek Farm
2011-03-24 12:00:00 39 67 29.0 2011-05-13 22:19:16 Pearl Creek Farm
2011-03-24 12:30:00 39 67 28.8 2011-05-13 22:19:16 Pearl Creek Farm
2011-03-24 13:00:00 40 66 29.4 2011-05-13 22:19:16 Pearl Creek Farm
2011-03-24 13:30:00 40 66 29.4 2011-05-13 22:19:16 Pearl Creek Farm
2011-03-24 14:00:00 41 63 29.4 2011-05-13 22:19:16 Pearl Creek Farm
2011-03-24 14:30:00 43 61 30.5 2011-05-13 22:19:16 Pearl Creek Farm
2011-03-24 15:00:00 43 61 30.5 2011-05-13 22:19:16 Pearl Creek Farm
2011-03-24 15:30:00 43 61 30.5 2011-05-13 22:19:16 Pearl Creek Farm
2011-03-24 16:00:00 45 59 31.4 2011-05-13 22:19:16 Pearl Creek Farm
2011-03-24 16:30:00 44 59 30.4 2011-05-13 22:19:16 Pearl Creek Farm
2011-03-24 17:00:00 45 58 30.9 2011-05-13 22:19:16 Pearl Creek Farm
2011-03-24 17:30:00 45 58 31.1 2011-05-13 22:19:16 Pearl Creek Farm
2011-03-24 18:00:00 45 60 31.8 2011-05-13 22:19:16 Pearl Creek Farm
2011-03-24 18:30:00 45 60 31.8 2011-05-13 22:19:16 Pearl Creek Farm
2011-03-24 19:00:00 45 60 31.8 2011-05-13 22:19:16 Pearl Creek Farm
2011-03-24 19:30:00 46 59 32.5 2011-05-13 22:19:16 Pearl Creek Farm
2011-03-24 20:00:00 47 58 33.0 2011-05-13 22:19:16 Pearl Creek Farm
2011-03-24 20:30:00 46 61 33.1 2011-05-13 22:19:16 Pearl Creek Farm
2011-03-24 21:00:00 44 66 33.2 2011-05-13 22:19:16 Pearl Creek Farm
2011-03-24 21:30:00 43 66 32.4 2011-05-13 22:19:16 Pearl Creek Farm
2011-03-24 22:00:00 41 67 30.7 2011-05-13 22:19:16 Pearl Creek Farm
2011-03-24 22:30:00 41 67 30.7 2011-05-13 22:19:16 Pearl Creek Farm
2011-03-24 23:00:00 41 68 31.3 2011-05-13 22:19:16 Pearl Creek Farm
2011-03-24 23:30:00 40 69 30.7 2011-05-13 22:19:16 Pearl Creek Farm

A total of 48 rows are displayed.